EW7038 Weather Reports


Display with metric or nautical units.
time (UTC)temp
F
wind
direction
speed
MPH
gust
MPH
rain 1hr
in
rain 24hr
in
rain mn
in
humidity
%
barometer
mb
20260901014015 81 165 2.0 2.0 0.00 0.00 0.00 18 1004.3
20260901013117 84 165 1.0 2.0 0.00 0.00 0.00 17 1004.3
20260901012116 86 264 2.0 4.0 0.00 0.00 0.00 15 1004.4
20260901011116 89 264 3.0 4.0 0.00 0.00 0.00 15 1004.4
20260901010917 89 192 1.0 1.0 0.00 0.00 0.00 16 1004.4
20260831235306 89 314 1.0 2.0 0.00 0.00 0.00 15 1006.0
20260831234804 89 348 1.0 2.0 0.00 0.00 0.00 17 1006.1
20260831234303 89 10 1.0 2.0 0.00 0.00 0.00 16 1006.1
20260831233803 88 339 1.0 3.0 0.00 0.00 0.00 17 1006.3
20260831232803 88 12 1.0 3.0 0.00 0.00 0.00 17 1006.4
20260831232305 88 61 2.0 3.0 0.00 0.00 0.00 16 1006.3
20260831231803 88 328 1.0 2.0 0.00 0.00 0.00 18 1006.4
20260831230803 88 5 1.0 2.0 0.00 0.00 0.00 17 1006.5
20260831230303 88 8 1.0 2.0 0.00 0.00 0.00 17 1006.6
20260831225803 88 17 1.0 2.0 0.00 0.00 0.00 18 1006.8
20260831225306 88 352 1.0 2.0 0.00 0.00 0.00 18 1006.8
20260831224803 88 16 1.0 2.0 0.00 0.00 0.00 18 1006.9
20260831224304 87 9 1.0 2.0 0.00 0.00 0.00 18 1007.1
20260831223803 86 53 1.0 2.0 0.00 0.00 0.00 19 1007.1
20260831223707 85 35 1.0 3.0 0.00 0.00 0.00 19 1007.2
20260831223303 86 30 1.0 5.0 0.00 0.00 0.00 19 1007.2
20260831222803 87 26 1.0 3.0 0.00 0.00 0.00 18 1007.3
20260831222306 85 339 1.0 5.0 0.00 0.00 0.00 19 1007.3
20260831221803 85 353 2.0 5.0 0.00 0.00 0.00 19 1007.4
20260831220803 86 311 1.0 7.0 0.00 0.00 0.00 19 1007.5
20260831173239 66 42 1.0 4.0 0.00 0.00 0.00 59 1011.4
20260831165305 63 66 1.0 3.0 0.00 0.00 0.00 54 1012.8
20260831164804 62 64 2.0 3.0 0.00 0.00 0.00 55 1012.9
20260831164304 62 13 2.0 3.0 0.00 0.00 0.00 54 1012.9
20260831163808 62 59 2.0 3.0 0.00 0.00 0.00 52 1013.0
20260831163303 63 19 1.0 3.0 0.00 0.00 0.00 52 1013.0
20260831162805 63 19 1.0 2.0 0.00 0.00 0.00 52 1013.1
20260831162306 63 83 2.0 3.0 0.00 0.00 0.00 51 1013.1
20260831161804 62 115 1.0 3.0 0.00 0.00 0.00 52 1013.2
20260831161304 62 69 2.0 3.0 0.00 0.00 0.00 52 1013.2
20260831160804 62 144 1.0 3.0 0.00 0.00 0.00 52 1013.3
20260831160304 61 85 1.0 2.0 0.00 0.00 0.00 54 1013.3
20260831155804 61 60 2.0 3.0 0.00 0.00 0.00 53 1013.4
20260831155306 60 301 1.0 3.0 0.00 0.00 0.00 55 1013.4
20260831154805 60 130 1.0 3.0 0.00 0.00 0.00 56 1013.4
20260831154304 59 131 2.0 3.0 0.00 0.00 0.00 56 1013.5
20260831153804 59 137 2.0 3.0 0.00 0.00 0.00 57 1013.5
20260831153305 58 105 2.0 5.0 0.00 0.00 0.00 59 1013.4
20260831152804 58 102 2.0 3.0 0.00 0.00 0.00 60 1013.5
20260831152306 58 87 2.0 3.0 0.00 0.00 0.00 61 1013.4
20260831151804 57 80 2.0 2.0 0.00 0.00 0.00 61 1013.4
20260831151304 57 131 2.0 5.0 0.00 0.00 0.00 62 1013.5
20260831150804 56 108 1.0 3.0 0.00 0.00 0.00 64 1013.5
20260831145804 55 147 2.0 3.0 0.00 0.00 0.00 67 1013.4
20260831145306 54 137 2.0 2.0 0.00 0.00 0.00 67 1013.4
20260831144805 53 151 2.0 5.0 0.00 0.00 0.00 69 1013.4
20260831144304 52 164 3.0 5.0 0.00 0.00 0.00 70 1013.4
20260831143804 52 164 2.0 3.0 0.00 0.00 0.00 73 1013.5
20260831143304 51 166 2.0 3.0 0.00 0.00 0.00 74 1013.5
20260831142306 50 154 2.0 3.0 0.00 0.00 0.00 74 1013.5
20260831141804 50 147 2.0 3.0 0.00 0.00 0.00 74 1013.5
20260831141304 50 149 2.0 3.0 0.00 0.00 0.00 74 1013.5
20260831140804 50 140 2.0 5.0 0.00 0.00 0.00 75 1013.4
20260831140304 49 132 3.0 3.0 0.00 0.00 0.00 76 1013.4
20260831134804 50 144 3.0 3.0 0.00 0.00 0.00 75 1013.3
20260831134304 50 156 2.0 3.0 0.00 0.00 0.00 75 1013.2
20260831133803 50 133 2.0 2.0 0.00 0.00 0.00 74 1013.2
20260831132804 51 155 2.0 3.0 0.00 0.00 0.00 74 1013.2
20260831132306 51 149 2.0 3.0 0.00 0.00 0.00 72 1013.2
20260831131304 52 156 2.0 3.0 0.00 0.00 0.00 71 1013.2
20260831130804 52 164 2.0 2.0 0.00 0.00 0.00 71 1013.2
20260831130304 52 133 2.0 3.0 0.00 0.00 0.00 72 1013.2
20260831125306 52 161 2.0 3.0 0.00 0.00 0.00 72 1013.3
20260831124804 52 160 2.0 2.0 0.00 0.00 0.00 71 1013.3
20260831124305 52 167 2.0 3.0 0.00 0.00 0.00 72 1013.3
20260831123804 52 132 2.0 3.0 0.00 0.00 0.00 71 1013.2
20260831123304 53 158 2.0 3.0 0.00 0.00 0.00 70 1013.2
20260831122804 53 164 2.0 3.0 0.00 0.00 0.00 71 1013.2
20260831121804 52 144 2.0 3.0 0.00 0.00 0.00 71 1013.1
20260831121304 52 154 2.0 3.0 0.00 0.00 0.00 71 1013.2
20260831120804 52 145 2.0 3.0 0.00 0.00 0.00 72 1013.1
20260831120304 52 148 2.0 3.0 0.00 0.00 0.00 71 1013.1
20260831115804 53 142 2.0 3.0 0.00 0.00 0.00 71 1013.2
20260831114804 53 154 2.0 3.0 0.00 0.00 0.00 71 1013.2
20260831113805 53 158 2.0 3.0 0.00 0.00 0.00 70 1013.2
20260831113304 53 137 2.0 3.0 0.00 0.00 0.00 70 1013.2
20260831111804 54 143 2.0 3.0 0.00 0.00 0.00 69 1013.2
20260831111304 53 168 2.0 3.0 0.00 0.00 0.00 70 1013.2
20260831110804 53 163 2.0 3.0 0.00 0.00 0.00 70 1013.2
20260831110303 53 172 2.0 3.0 0.00 0.00 0.00 71 1013.2
20260831105804 53 157 2.0 3.0 0.00 0.00 0.00 70 1013.2
20260831105306 54 154 2.0 3.0 0.00 0.00 0.00 69 1013.2
20260831104804 54 171 2.0 3.0 0.00 0.00 0.00 69 1013.3
20260831103804 54 168 2.0 3.0 0.00 0.00 0.00 69 1013.2
20260831103304 54 156 2.0 3.0 0.00 0.00 0.00 69 1013.2
20260831102803 54 172 2.0 3.0 0.00 0.00 0.00 69 1013.2
20260831102306 54 184 2.0 3.0 0.00 0.00 0.00 68 1013.3
20260831101804 54 154 2.0 3.0 0.00 0.00 0.00 69 1013.2
20260831101304 55 162 2.0 2.0 0.00 0.00 0.00 68 1013.2
20260831100804 55 157 2.0 3.0 0.00 0.00 0.00 69 1013.2
20260831095805 54 156 2.0 3.0 0.00 0.00 0.00 69 1013.4
20260831095306 54 154 2.0 3.0 0.00 0.00 0.00 69 1013.4
20260831094804 55 162 2.0 3.0 0.00 0.00 0.00 68 1013.4
20260831094304 55 155 2.0 3.0 0.00 0.00 0.00 67 1013.5
20260831093804 55 159 2.0 2.0 0.00 0.00 0.00 68 1013.5
20260831093304 55 148 2.0 2.0 0.00 0.00 0.00 67 1013.6
20260831092804 55 160 2.0 2.0 0.00 0.00 0.00 67 1013.6
20260831091804 56 154 2.0 2.0 0.00 0.00 0.00 66 1013.6
20260831091304 56 152 2.0 2.0 0.00 0.00 0.00 66 1013.6
20260831090304 56 153 2.0 2.0 0.00 0.00 0.00 65 1013.6
20260831085806 57 153 2.0 2.0 0.00 0.00 0.00 64 1013.6
20260831085306 57 137 1.0 2.0 0.00 0.00 0.00 64 1013.7
20260831084804 57 140 2.0 2.0 0.00 0.00 0.00 64 1013.7
20260831084304 57 156 2.0 2.0 0.00 0.00 0.00 64 1013.8
20260831083805 57 150 1.0 2.0 0.00 0.00 0.00 64 1013.7
20260831083304 58 141 2.0 2.0 0.00 0.00 0.00 63 1013.7
20260831082805 58 149 2.0 3.0 0.00 0.00 0.00 62 1013.7
20260831082306 59 144 2.0 2.0 0.00 0.00 0.00 61 1013.7
20260831081304 58 134 1.0 2.0 0.00 0.00 0.00 62 1013.9
20260831080804 58 142 2.0 2.0 0.00 0.00 0.00 62 1013.9
20260831080304 59 145 2.0 2.0 0.00 0.00 0.00 60 1013.9
20260831075805 59 134 2.0 3.0 0.00 0.00 0.00 60 1013.9
20260831075306 60 136 2.0 3.0 0.00 0.00 0.00 58 1013.9
20260831074304 60 188 2.0 3.0 0.00 0.00 0.00 58 1013.9
20260831073804 60 181 2.0 3.0 0.00 0.00 0.00 58 1013.9
20260831072804 61 179 2.0 2.0 0.00 0.00 0.00 57 1013.9
20260831072306 62 185 3.0 8.0 0.00 0.00 0.00 57 1014.0
20260831071804 61 231 3.0 8.0 0.00 0.00 0.00 58 1014.0
20260831071305 61 242 2.0 6.0 0.00 0.00 0.00 58 1014.0
20260831070803 62 142 1.0 2.0 0.00 0.00 0.00 56 1014.0
20260831070304 62 135 1.0 2.0 0.00 0.00 0.00 55 1014.0
20260831065804 62 139 1.0 2.0 0.00 0.00 0.00 54 1014.0
20260831064804 64 134 1.0 2.0 0.00 0.00 0.00 52 1013.9
20260831064307 64 227 2.0 8.0 0.00 0.00 0.00 52 1013.8
20260831063304 65 275 2.0 9.0 0.00 0.00 0.00 51 1013.9
20260831062804 65 258 2.0 10.0 0.00 0.00 0.00 51 1013.9
20260831061804 65 254 5.0 10.0 0.00 0.00 0.00 51 1014.1
20260831061304 65 249 6.0 12.0 0.00 0.00 0.00 51 1014.1
20260831060804 65 257 7.0 13.0 0.00 0.00 0.00 50 1014.1
20260831060304 65 255 6.0 12.0 0.00 0.00 0.00 51 1014.1
20260831055804 65 237 7.0 12.0 0.00 0.00 0.00 50 1014.1
20260831055306 65 266 6.0 12.0 0.00 0.00 0.00 51 1014.1
20260831054804 65 271 6.0 10.0 0.00 0.00 0.00 50 1014.1
20260831054304 66 284 6.0 9.0 0.00 0.00 0.00 49 1014.1
20260831053804 66 267 6.0 10.0 0.00 0.00 0.00 48 1014.2
20260831053303 66 256 6.0 15.0 0.00 0.00 0.00 48 1014.3
20260831052307 66 265 5.0 9.0 0.00 0.00 0.00 47 1014.3
20260831051804 67 269 5.0 9.0 0.00 0.00 0.00 47 1014.3
20260831051304 67 256 7.0 12.0 0.00 0.00 0.00 46 1014.3
20260831050804 67 304 5.0 10.0 0.00 0.00 0.00 46 1014.3
20260831050304 67 264 7.0 12.0 0.00 0.00 0.00 46 1014.3
20260831045804 67 271 7.0 12.0 0.00 0.00 0.00 46 1014.3
20260831045306 67 266 6.0 14.0 0.00 0.00 0.00 46 1014.3
20260831044804 67 254 9.0 20.0 0.00 0.00 0.00 45 1014.2
20260831044304 67 238 6.0 14.0 0.00 0.00 0.00 45 1014.2
20260831043805 67 263 9.0 13.0 0.00 0.00 0.00 45 1014.2
20260831043304 68 246 6.0 13.0 0.00 0.00 0.00 45 1014.3
20260831042805 68 261 8.0 16.0 0.00 0.00 0.00 45 1014.2
20260831042306 68 239 8.0 15.0 0.00 0.00 0.00 45 1014.2
20260831041804 68 266 5.0 13.0 0.00 0.00 0.00 45 1014.2
20260831041304 68 236 8.0 17.0 0.00 0.00 0.00 44 1014.2
20260831040804 68 262 9.0 15.0 0.00 0.00 0.00 44 1014.2
20260831040304 68 286 8.0 17.0 0.00 0.00 0.00 43 1014.2
20260831035306 68 298 9.0 16.0 0.00 0.00 0.00 43 1014.2
20260831034305 69 271 12.0 20.0 0.00 0.00 0.00 42 1014.0
20260831033804 69 270 9.0 16.0 0.00 0.00 0.00 42 1014.0
20260831033304 69 265 12.0 22.0 0.00 0.00 0.00 42 1014.0
20260831032804 69 261 9.0 18.0 0.00 0.00 0.00 42 1013.9
20260831032306 69 271 12.0 20.0 0.00 0.00 0.00 41 1013.9
20260831031804 69 286 10.0 18.0 0.00 0.00 0.00 41 1013.9
20260831031304 69 262 13.0 23.0 0.00 0.00 0.00 41 1013.9
20260831030804 69 282 12.0 21.0 0.00 0.00 0.00 40 1013.8
20260831030304 70 281 10.0 21.0 0.00 0.00 0.00 40 1013.8
20260831025803 70 262 12.0 23.0 0.00 0.00 0.00 40 1013.8
20260831025306 70 255 10.0 20.0 0.00 0.00 0.00 40 1013.8
20260831024804 70 275 12.0 21.0 0.00 0.00 0.00 40 1013.8
20260831024304 70 267 9.0 16.0 0.00 0.00 0.00 40 1013.8
20260831023804 70 286 10.0 21.0 0.00 0.00 0.00 39 1013.8
20260831023304 70 285 12.0 20.0 0.00 0.00 0.00 39 1013.8
20260831022804 71 245 9.0 18.0 0.00 0.00 0.00 39 1013.9
20260831022306 71 267 11.0 20.0 0.00 0.00 0.00 38 1013.8
20260831021804 71 267 13.0 21.0 0.00 0.00 0.00 39 1013.8
20260831021304 71 260 11.0 17.0 0.00 0.00 0.00 38 1013.9
20260831020304 72 272 10.0 20.0 0.00 0.00 0.00 37 1013.9
20260831015804 72 281 8.0 18.0 0.00 0.00 0.00 37 1013.8
20260831015305 72 280 7.0 22.0 0.00 0.00 0.00 36 1013.7
20260831014804 72 271 9.0 21.0 0.00 0.00 0.00 36 1013.8